Location: Newark
(43.6583°N, 1.6617°E)
Time: 04:55:14
(UTC+00:00)

Vanguard 2 Rocket - Pass Details

Date: 26 August 2019
Orbit: 554 x 3327 km, 32.9° (Epoch: 15 September)

Event Time Altitude Azimuth Distance (km) Brightness Sun altitude
Exits shadow 04:25:47 - 256° (WSW) 4,621 9.8 -8.3°
Reaches altitude 10° 04:26:08 10° 255° (WSW) 4,542 9.8 -8.3°
Maximum altitude 04:39:31 57° 182° (S) 3,207 9.5 -6.0°
Drops below altitude 10° 04:58:44 10° 111° (ESE) 6,285 12.1 -2.8°
Sets 05:03:45 0° 108° (ESE) 7,275 12.6 -1.9°
